Location: Arbon
(43.0005°N, 0.7472°E)
Time: 07:57:07
(UTC+00:00)

NOSS 2-1 (E) - Pass Details

Date: 22 April 2026
Orbit: 385 x 1749 km, 63.3° (Epoch: 7 May)

Event Time Altitude Azimuth Distance (km) Brightness Sun altitude
Rises 20:46:34 0° 314° (NW) 2,456 8.3 -19.8°
Reaches altitude 10° 20:48:33 10° 306° (NW) 1,679 7.0 -20.0°
Maximum altitude 20:51:57 37° 237° (WSW) 907 4.5 -20.5°
Enters shadow 20:53:27 28° 196° (SSW) 1,164 4.7 -20.7°
